This is the latest recevied weather packets stored in our database for station/object N4JTC. If no packets are shown the sender has not sent any weather packets the latest 10 day(s).
| Time | Temp. | Humidity | Pressure | Rain* | Wind** | Luminosity | Snow |
|---|---|---|---|---|---|---|---|
| 1777561803 | 27.22° C | 69% | 1013.4 hPa | 0 mm | - | 842 W/m² | - |
| 1777561502 | 26.67° C | 70% | 1013.4 hPa | 0 mm | - | 828 W/m² | - |
| 1777561203 | 26.67° C | 72% | 1013.5 hPa | 0 mm | - | 797 W/m² | - |
| 1777560903 | 26.67° C | 72% | 1013.4 hPa | 0 mm | - | 764 W/m² | - |
| 1777560603 | 26.11° C | 73% | 1013.3 hPa | 0 mm | - | 772 W/m² | - |
| 1777560303 | 25.56° C | 73% | 1013.4 hPa | 0 mm | - | 770 W/m² | - |
| 1777560003 | 25.56° C | 74% | 1013 hPa | 0 mm | - | 369 W/m² | - |
| 1777559702 | 25.56° C | 74% | 1012.8 hPa | 0 mm | - | 331 W/m² | - |
| 1777559403 | 25.56° C | 76% | 1012.9 hPa | 0 mm | - | 340 W/m² | - |
| 1777559103 | 25.56° C | 74% | 1012.9 hPa | 0 mm | - | 407 W/m² | - |
| 1777558803 | 25.56° C | 75% | 1013.2 hPa | 0 mm | - | 811 W/m² | - |
| 1777558504 | 25° C | 77% | 1013.2 hPa | 0 mm | - | 581 W/m² | - |
| 1777557903 | 25° C | 79% | 1013 hPa | 0 mm | - | 470 W/m² | - |
| 1777557603 | 24.44° C | 80% | 1013.1 hPa | 0 mm | - | 640 W/m² | - |
| 1777557303 | 24.44° C | 82% | 1012.8 hPa | 0 mm | - | 402 W/m² | - |
| 1777557003 | 24.44° C | 82% | 1012.9 hPa | 0 mm | - | 201 W/m² | - |
| 1777556703 | 23.89° C | 83% | 1013 hPa | 0 mm | - | 224 W/m² | - |
| 1777556403 | 24.44° C | 83% | 1013 hPa | 0 mm | - | 222 W/m² | - |
| 1777556103 | 23.89° C | 85% | 1012.7 hPa | 0 mm | - | 224 W/m² | - |
| 1777555503 | 23.33° C | 87% | 1013 hPa | 0 mm | - | 146 W/m² | - |
| 1777555203 | 23.89° C | 88% | 1012.8 hPa | 0 mm | - | 79 W/m² | - |
| 1777554902 | 24.44° C | 87% | 1013 hPa | 0 mm | - | 27 W/m² | - |
| 1777554604 | 24.44° C | 86% | 1012.7 hPa | 0 mm | - | 36 W/m² | - |
| 1777554303 | 24.44° C | 86% | 1012.4 hPa | 0 mm | - | 55 W/m² | - |
| 1777554003 | 24.44° C | 86% | 1012.3 hPa | 0 mm | - | 56 W/m² | - |
* Rain latest hour (hover to see other rain measurements)
** Current wind speed in m/s (hover to see current wind gust speed)